779  
ASUS42 KTAE 230303  
RWRTAE  
RWRTAE  
NORTH FLORIDA/SOUTH ALABAMA/SOUTHWEST GEORGIA WEATHER ROUNDUP  
NATIONAL WEATHER SERVICE TALLAHASSEE FLORIDA  
1000 PM EST FRI FEB 22 2019  
 
NOTE: "FAIR" INDICATES FEW OR NO CLOUDS BELOW 12,000 FEET WITH NO  
SIGNIFICANT WEATHER AND/OR S TO VISIBILITY
.  
 
!FLZ017-115-028-034-025-230400   
..NORTH FLORIDA
 
 
 
CITY SKY/WX TMP DP RH WIND PRES REMARKS
 
TALL INTL ARPT CLOUDY 70 69 97 CALM 30.15R  
FSU LOVE BLDG N/A 72 70 94 S5 N/A  
APALACHICOLA CLOUDY 68 66 93 E3 30.13S  
PERRY FOG 66 65 97 CALM 30.17R VSB 1/2  
CROSS CITY FAIR 66 65 97 NW5 30.16S  
JACKSONVILLE FAIR 71 63 75 SE6 30.17R  

 
 
!FLZ112-006-005-002-011-230400   
..FLORIDA PANHANDLE
 
 
 
CITY SKY/WX TMP DP RH WIND PRES REMARKS
 
MARIANNA CLOUDY 70 67 90 CALM 30.15R  
BONIFAY NOT AVBL  
PANAMA CITY NW CLOUDY 71 68 90 SE5 30.14R  
TYNDALL AFB CLOUDY 70 68 94 SE8 30.14R  
TYND DRONE APT NOT AVBL  
DE FUNIAK SPR CLOUDY 70 68 93 S6 30.15S  
EGLIN AFB FOG 67 67 100 SE10 30.12S VSB 5/8  
DESTIN FOG 66 65 96 SE9 30.13R VSB 3/4  
HURLBURT FOG 67 66 97 SE7 30.11S VSB 1/4  
CRESTVIEW CLOUDY 70 68 93 SE3 30.14S  
PENSACOLA FOG 67 66 97 E9 30.10F VSB 1/4  

 
 
!ALZ063-066-230400   
..SOUTH ALABAMA
 
 
 
CITY SKY/WX TMP DP RH WIND PRES REMARKS
 
DOTHAN FAIR 66 63 90 S5 30.18R  
OZARK CAIRNS NOT AVBL  
FT RUCKER HELI NOT AVBL  
RUCKER HELI 3 NOT AVBL  
RUCKER HELI 2 NOT AVBL  
FLORALA APT CLOUDY 70 66 87 S5 30.15S  
ANDALUSIA CLOUDY 72 67 84 CALM 30.12S  
TROY MOCLDY 70 66 87 S3 30.14R  
EUFALA FAIR 66 65 96 CALM 30.13S  
MOBILE FOG 70 70 100 SE10 30.09R VSB 1/4  

 
 
!GAZ120>161-230400   
..SOUTHWEST AND SOUTH CENTRAL GEORGIA
 
 
 
CITY SKY/WX TMP DP RH WIND PRES REMARKS
 
THOMASVILLE CLOUDY 70 64 83 SW3 30.18R  
BAINBRIDGE N/A 72 64 78 MISG 30.17R  
MOODY AFB CLOUDY 71 68 90 CALM 30.17R  
VALDOSTA CLOUDY 71 66 84 CALM 30.16R  
MOULTRIE FAIR 72 64 78 CALM 30.17R  
BLAKELY MOCLDY 64 63 94 CALM 30.17R  
ALBANY CLOUDY 72 66 81 CALM 30.18R  
TIFTON CLOUDY 69 69 100 CALM 30.17  
FITZGERALD CLOUDY 69 67 94 CALM 30.19R  
CORDELE CLOUDY 70 63 79 NE8 30.19R  
AMERICUS NOT AVBL  
HOMERVILLE NOT AVBL  

 
 
!GMZ750-755-770-775-230400   
..COASTAL AND BUOY OBS
 
 
 
STATION/POSITION TIME TEMP WIND PRES VSBY WAVE
 
AIR SEA DIR/SP/G HT/PER  
(UTC) (F) (DEG/KT/KT) (MB) (MI) (FT/S)  
KEATON BEACH 0200 69 90/ 2/ 2 1021.3F  
CEDAR KEY 0200 73 CALM / 1 1021.6R  
C TOWER 0200 68 140/ 12/ 12 1020.4F  
APALACHICOLA BUO NOT AVBL  
PANAMA CITY BUOY NOT AVBL  
MOBILE BUOY 0240 140/ 12/ 14 1018.8R  
ORANGE BCH AL BU 0250 67 100/ 8/ 10 1019.3R 3/ 6  

 
 
 
CLICK HERE TO GO TO PREVIOUS BULLETINS.

The Nexlab FL Page
The Nexlab GA Page
The Nexlab AL Page Main Text Page